Satellite-Ground Cal/Val Region Overpasses Predictions

Prediction of Satellite NPP Overpassing Cal/Val Region: PacN

Region Location: (Latitude: 15.00, Longitude: 179.40) to (Latitude: 23.50, Longitude: 200.60).

Table of predicted overpasses for the next 14.0 days since TLE Epoch: 2/26/2023
Interval Starting Time Starting Location Ending Time Ending Location
1 02/28/2023 01:14:43 ( 19.33, 180.00) 02/28/2023 01:15:24 ( 21.73, 179.41)
2 02/28/2023 13:43:43 ( 23.48, 179.64) 02/28/2023 13:43:59 ( 22.54, 179.41)
3 03/05/2023 01:19:47 ( 15.03, 179.47) 03/05/2023 01:19:51 ( 15.26, 179.41)
